Simultaneous Nadir Overpasses (SNOs) Predictions

Prediction of SNOs between FY3D and TERRA Satellite Orbit:

Table of predicted SNOs for the next 14.0 days since TLE Epoch: 2/15/2025
Index Date (FY3D) Time (FY3D) Lat,Lon (FY3D) SZA (FY3D ) Date (TERRA) Time (TERRA) Lat,Lon (TERRA) SZA (TERRA ) Distance(km) Time Diff (sec)
1 02/15/2025 10:30:27 77.11, 22.49 89.57 02/15/2025 10:31:32 77.08, 22.51 89.54 3.59 65
2 02/15/2025 11:21:10 -77.03,-169.86 90.53 02/15/2025 11:20:54 -77.03,-169.99 90.52 3.29 16
3 02/17/2025 21:42:49 77.09,-145.47 88.70 02/17/2025 21:43:12 77.07,-145.48 88.67 2.81 23
4 02/17/2025 22:33:33 -77.06, 22.00 91.36 02/17/2025 22:32:34 -77.02, 22.02 91.39 3.78 59
5 02/20/2025 08:04:27 -77.13,-120.96 92.15 02/20/2025 08:05:32 -77.10,-121.00 92.18 2.93 65
6 02/20/2025 08:55:11 77.09, 46.52 87.81 02/20/2025 08:54:51 77.07, 46.58 87.79 2.07 20
7 02/22/2025 19:16:49 -77.13, 71.01 93.04 02/22/2025 19:17:10 -77.12, 71.11 93.06 2.66 21
8 02/22/2025 20:07:32 77.05,-121.33 86.87 02/22/2025 20:06:30 77.04,-121.48 86.87 3.72 62
9 02/25/2025 05:38:26 77.13, 95.63 86.07 02/25/2025 05:39:26 77.15, 95.63 86.08 1.91 60
10 02/25/2025 06:29:10 -77.09, -96.87 93.99 02/25/2025 06:28:48 -77.10, -96.91 93.99 1.00 22
11 02/27/2025 16:50:47 77.15, -72.49 85.16 02/27/2025 16:51:02 77.15, -72.33 85.16 3.90 15



Historial Predications of SNOs between FY3D and TERRA
